Terminal Aerodrome Forecast
Issued by NWS

Home | Current Version | Previous Version | Graphics & Text | Print | Product List | Glossary On
Versions: 1 2 3 4 5 6 7 8 9 10 11 12 13 14 15 16 17 18 19 20 21 22 23 24 25 26 27 28 29 30 31 32 33 34 35 36 37 38 39 40 41
000
FTUS43 KLOT 130600 AAB
TAFDPA
TAF AMD
KDPA 130635Z 1307/1406 26005KT 4SM BR SCT007 BKN010 OVC025
     FM131400 29005KT P6SM SCT020
     FM131800 28010G17KT P6SM SCT045
     FM140000 32004KT P6SM FEW050=

USA.gov is the U.S. government's official web portal to all federal, state and local government web resources and services.